STARLINK-1574 (46062 NORAD) Tracking and Keplerian Element Data

This shows tracking and keplerian element data for the satellite.

Feedback or suggestion? Click here.




ElementValue
Catalog46062
NameSTARLINK-1574
Epoch Orbit1885
Epoch Day339.07276771
Epoch Year2020
RAAN103.0651
Inclination53.039
Eccentricity0.0001399
Argument of Perigee84.7137
Mean Anonmoly275.4011
Mean Motion15.06403373
Decay Rate1.411E-05
L11 46062U 20055AM 20339.07276771 .00001411 00000-0 11360-3 0 9995
L22 46062 53.0390 103.0651 0001399 84.7137 275.4011 15.06403373 18852

Live tracking and technical data element details for STARLINK-1574 (NORAD 46062). STARLINK-1574 can be tracked NOW for your location showing map with azimuth and elevation plus other details from your city location.

Track the satellite on the map from your city or location and see movement details for azimuth, elevation, latitude, longitude, range, height, and movement on the map or in text.







IsCatalogInMostPopularTable: catalog: 46062, numindb: 25
Update: records affected: 1



GetName: 46062 STARLINK-1574

Hit Count: updated at: Sun, 06 Dec 2020 01:27:21 GMT